Вернуться в каталог

COSMOS 2251 DEB

АктивенLEO
NORAD 35771·DEBRIS·🇷🇺 Russia

Запущен Jun 16, 1993 с Plesetsk Cosmodrome

Loading…

Ближайшие Пролёты (ближайшие 24 часа)

TLE

СвежийSource: Space-Track

Эпоха: Sep 14, 2026, 05:21 UTC

1 35771U 93036ARR 26257.22310312  .00006984  00000-0  27872-2 0  9995
2 35771  74.1558 183.9476 0200119  48.3043 313.5030 14.18317287867602

Отслеживайте COSMOS 2251 DEB в реальном времени с AllMySat

Download on the App Store